This is the latest recevied weather packets stored in our database for station/object N7CEE. If no packets are shown the sender has not sent any weather packets the latest 1 day(s).
| Time | Temp. | Humidity | Pressure | Rain* | Wind** | Luminosity | Snow |
|---|---|---|---|---|---|---|---|
| 1778085796 | 12.78° C | 41% | 1023.6 hPa | 0 mm | - | 645 W/m² | - |
| 1778085494 | 12.22° C | 40% | 1023.5 hPa | 0 mm | - | 630 W/m² | - |
| 1778079518 | 7.22° C | 59% | 1023.1 hPa | 0 mm | - | 39 W/m² | - |
| 1778077098 | 5° C | 67% | 1023 hPa | 0 mm | - | 32 W/m² | - |
| 1778075583 | 1.67° C | 80% | 1023 hPa | 0 mm | - | 36 W/m² | - |
| 1778075280 | 1.11° C | 81% | 1023.1 hPa | 0 mm | - | 37 W/m² | - |
| 1778074067 | 0° C | 86% | 1022.9 hPa | 0 mm | - | 18 W/m² | - |
| 1778073159 | -1.11° C | 93% | 1023 hPa | 0 mm | - | 14 W/m² | - |
| 1778072855 | -1.11° C | 93% | 1022.9 hPa | 0 mm | - | 13 W/m² | - |
| 1778072552 | -1.11° C | 93% | 1022.8 hPa | 0 mm | - | 12 W/m² | - |
| 1778072250 | -1.11° C | 93% | 1022.9 hPa | 0 mm | - | 10 W/m² | - |
| 1778071343 | -1.11° C | 89% | 1022.5 hPa | 0 mm | - | 5 W/m² | - |
| 1778070133 | -1.11° C | 90% | 1022.4 hPa | 0 mm | - | 1 W/m² | - |
| 1778069527 | -1.11° C | 90% | 1022.1 hPa | 0 mm | - | 0 W/m² | - |
| 1778068922 | -1.11° C | 92% | 1022.1 hPa | 0 mm | - | 0 W/m² | - |
| 1778068015 | -1.11° C | 95% | 1022.1 hPa | 0 mm | - | 0 W/m² | - |
| 1778066804 | -1.67° C | 96% | 1022 hPa | 0 mm | - | 0 W/m² | - |
| 1778066502 | -1.67° C | 96% | 1022.1 hPa | 0 mm | - | 0 W/m² | - |
| 1778065897 | -1.67° C | 96% | 1022 hPa | 0 mm | - | 0 W/m² | - |
| 1778064988 | -1.67° C | 96% | 1021.9 hPa | 0 mm | - | 0 W/m² | - |
| 1778064685 | -1.67° C | 95% | 1021.9 hPa | 0 mm | - | 0 W/m² | - |
| 1778061659 | -1.67° C | 97% | 1021.3 hPa | 0 mm | - | 0 W/m² | - |
| 1778061358 | -1.67° C | 97% | 1021.5 hPa | 0 mm | - | 0 W/m² | - |
| 1778061054 | -1.67° C | 96% | 1021.4 hPa | 0 mm | - | 0 W/m² | - |
| 1778059239 | -1.11° C | 96% | 1021.1 hPa | 0 mm | - | 0 W/m² | - |
* Rain latest hour (hover to see other rain measurements)
** Current wind speed in m/s (hover to see current wind gust speed)